[[{"header":{"parameterUnit":"m.s-1","parameterCategory":2,"la1":30.2992,"la2":30.254,"lo1":-89.0895,"lo2":-89.0443,"dy":0.0025,"dx":0.0025,"nx":19,"ny":19,"refTime":"2026-03-26T09:00:00:Z","depth":"0","parameterNumber":2,"parameterNumberName":"U-component_of_CURRENTS"},"data":[0,0,0,0.2879,0.2883,0.3024,0.3025,0.3139,0.314,0,0,0,0,0,0,0,0,0,0,0,0.2822,0.2823,0.2879,0.2883,0.3024,0.3025,0.3139,0.314,0,0,0,0,0,0,0,0,0,0,0,0.2822,0.2823,0.2824,0.2883,0.3024,0.3025,0.3139,0.3047,0,0,0,0,0,0,0,0,0,0,0.2917,0.2866,0.2823,0.2824,0.2884,0.3024,0.3025,0.3044,0.3053,0.3057,0,0.3082,0,0.3119,0.3146,0.3147,0,0,0,0.2878,0.2859,0.2909,0.2824,0.2886,0.3024,0.2959,0.3049,0.306,0.3069,0.3084,0.3089,0.3121,0.3147,0.3148,0.327,0.3271,0,0,0.287,0.2836,0.2902,0.2916,0.2926,0.2955,0.2964,0.3056,0.3059,0.3085,0.3093,0.3123,0.3148,0.3149,0.327,0.327,0,0,0,0.2851,0.283,0.2879,0.291,0.2945,0.2959,0.2969,0.3055,0.3076,0.3094,0.3124,0.3148,0.315,0.3269,0.327,0.331,0,0,0,0.2846,0.282,0.2876,0.2855,0.2944,0.3009,0.2965,0.3069,0.3081,0.3124,0.3148,0.315,0.3268,0.3269,0.3307,0.3295,0,0,0,0.2815,0.2816,0.2836,0.2853,0.2919,0.3009,0.3035,0.3073,0.3099,0.3147,0.3151,0.3268,0.3269,0.3305,0.3292,0.3395,0,0,0,0.2769,0.2827,0.2835,0.291,0.2918,0.3037,0.3035,0.3115,0.316,0.3149,0.3268,0.327,0.3304,0.3291,0.3392,0.3462,0.3482,0,0,0.2825,0.2832,0.2881,0.2893,0.301,0.3017,0.3121,0.3169,0.318,0.323,0.3234,0.3308,0.3292,0.3394,0.3546,0.3563,0,0,0,0.2888,0.2917,0.2957,0.3021,0.3096,0.3148,0.3198,0.3218,0.3276,0.3216,0.3326,0.3315,0.3379,0.3415,0.3429,0.3424,0.3277,0.3276,0.3276,0.289,0.295,0.3029,0.3105,0.3167,0.3243,0.3286,0.3318,0.3326,0.3357,0.3363,0.348,0.3519,0.3531,0.3524,0.3395,0.3395,0.3396,0.3396,0.2959,0.2997,0.3061,0.315,0.3205,0.3269,0.3357,0.3373,0.3458,0.3418,0.348,0.3471,0.3549,0.3536,0.3399,0.3398,0.3398,0.3397,0.3397,0.2938,0.2965,0.3016,0.3115,0.3183,0.3261,0.3356,0.3433,0.3482,0.3532,0.3631,0.3631,0.361,0.3598,0.3599,0.3599,0.3599,0.36,0.36,0.2878,0.2943,0.2975,0.3073,0.3109,0.3204,0.3359,0.3463,0.3636,0.367,0.3672,0.3657,0.3542,0.3523,0.3606,0.3605,0.3604,0.3604,0.3603,0.2881,0.2864,0.2924,0.2956,0.3048,0.3108,0.3308,0.3589,0.3727,0.3841,0.3845,0.3773,0.3774,0.3763,0.375,0.3887,0.3887,0.3887,0.3887,0.2836,0.2848,0.2877,0.2907,0.2962,0.3062,0.3208,0.3476,0.3806,0.391,0.3958,0.3914,0.3902,0.3907,0.3892,0.388,0.4047,0.4047,0.4047,0.284,0.2841,0.2843,0.2857,0.2906,0.2983,0.3078,0.3261,0.3754,0.4048,0.394,0.3933,0.3857,0.3839,0.3831,0.3811,0.3785,0,0]},{"header":{"parameterUnit":"m.s-1","parameterCategory":2,"la1":30.2992,"la2":30.254,"lo1":-89.0895,"lo2":-89.0443,"dy":0.0025,"dx":0.0025,"nx":19,"ny":19,"refTime":"2026-03-26T09:00:00:Z","depth":"0","parameterNumber":3,"parameterNumberName":"V-component_of_CURRENTS"},"data":[0,0,0,-0.0748,-0.0751,-0.0927,-0.0928,-0.1176,-0.1178,0,0,0,0,0,0,0,0,0,0,0,-0.069,-0.069,-0.0748,-0.0751,-0.0927,-0.0928,-0.1176,-0.1178,0,0,0,0,0,0,0,0,0,0,0,-0.0689,-0.069,-0.0691,-0.0751,-0.0926,-0.0928,-0.1176,-0.1044,0,0,0,0,0,0,0,0,0,0,-0.0874,-0.0802,-0.069,-0.0691,-0.0752,-0.0926,-0.0928,-0.1038,-0.1053,-0.1094,0,-0.1105,0,-0.1134,-0.1193,-0.1193,0,0,0,-0.0782,-0.079,-0.0835,-0.0691,-0.0753,-0.0926,-0.0856,-0.1046,-0.1063,-0.1113,-0.1108,-0.1118,-0.1138,-0.1194,-0.1195,-0.1339,-0.1339,0,0,-0.0772,-0.0733,-0.0823,-0.0844,-0.0779,-0.085,-0.0861,-0.1056,-0.1067,-0.1109,-0.1124,-0.1142,-0.1196,-0.1197,-0.1339,-0.1339,0,0,0,-0.0723,-0.0726,-0.0766,-0.0834,-0.0856,-0.0854,-0.0867,-0.1059,-0.107,-0.1126,-0.1145,-0.1197,-0.1199,-0.1339,-0.1339,-0.1249,0,0,0,-0.0719,-0.0696,-0.0761,-0.0742,-0.0852,-0.0955,-0.0865,-0.1057,-0.108,-0.1144,-0.1197,-0.1202,-0.1339,-0.1339,-0.1251,-0.1146,0,0,0,-0.0685,-0.0692,-0.0705,-0.0739,-0.0801,-0.0952,-0.0977,-0.1063,-0.109,-0.1194,-0.1202,-0.1339,-0.1339,-0.1253,-0.1153,-0.1026,0,0,0,-0.0651,-0.0666,-0.0704,-0.0737,-0.0799,-0.0899,-0.0977,-0.1071,-0.1154,-0.1198,-0.1339,-0.1339,-0.1254,-0.1157,-0.1032,-0.0651,-0.0596,0,0,-0.065,-0.0664,-0.0687,-0.0725,-0.0793,-0.0879,-0.0955,-0.1089,-0.1167,-0.1283,-0.1287,-0.125,-0.1153,-0.1028,-0.0648,-0.0592,0,0,0,-0.0675,-0.0685,-0.0717,-0.0765,-0.0845,-0.0894,-0.1031,-0.1087,-0.119,-0.121,-0.1275,-0.1215,-0.1138,-0.0922,-0.0879,-0.0998,-0.1339,-0.1339,-0.1339,-0.0609,-0.0666,-0.0698,-0.077,-0.0823,-0.0926,-0.0963,-0.1059,-0.1171,-0.1193,-0.1162,-0.1025,-0.0799,-0.0761,-0.0893,-0.1222,-0.1221,-0.1221,-0.1221,-0.0596,-0.0605,-0.0667,-0.0714,-0.0762,-0.0815,-0.0911,-0.0967,-0.0984,-0.111,-0.1041,-0.0863,-0.0706,-0.0865,-0.1215,-0.1216,-0.1217,-0.1218,-0.1218,-0.055,-0.0552,-0.0591,-0.0619,-0.0626,-0.0699,-0.0579,-0.0709,-0.0844,-0.0798,-0.0539,-0.0537,-0.0649,-0.0766,-0.0765,-0.0764,-0.0763,-0.0763,-0.0762,-0.0459,-0.05,-0.0454,-0.0499,-0.0444,-0.0378,-0.0372,-0.0296,-0.0262,-0.035,-0.0347,-0.0587,-0.0885,-0.0872,-0.0747,-0.0749,-0.0751,-0.0753,-0.0754,-0.0374,-0.0361,-0.0281,-0.0219,-0.0081,0.0187,0.0156,0.0435,0.0411,0.0519,0.0047,-0.0104,-0.0069,-0.0102,-0.007,0.0256,0.0255,0.0256,0.0256,-0.0258,-0.027,-0.0058,0.0113,0.0318,0.0469,0.1026,0.1152,0.088,0.068,0.0381,0.0304,0.0268,0.0309,0.0267,0.0299,0.071,0.071,0.071,-0.0148,-0.0099,0.0113,0.0259,0.052,0.0867,0.1465,0.1756,0.1223,0.0691,0.0131,0.0112,-0.0062,-0.0107,-0.01,-0.015,-0.0119,0,0]}],[{"header":{"parameterUnit":"m.s-1","parameterCategory":2,"la1":30.2992,"la2":30.254,"lo1":-89.0895,"lo2":-89.0443,"dy":0.0025,"dx":0.0025,"nx":19,"ny":19,"refTime":"2026-03-26T09:00:00:Z","depth":"2","parameterNumber":2,"parameterNumberName":"U-component_of_CURRENTS"},"data":[0,0,0,0.2256,0.2261,0.2392,0.2392,0.2491,0.2493,0,0,0,0,0,0,0,0,0,0,0,0.2168,0.2169,0.2256,0.2261,0.2392,0.2392,0.2491,0.2493,0,0,0,0,0,0,0,0,0,0,0,0.2168,0.2169,0.217,0.2262,0.2392,0.2392,0.2491,0.2399,0,0,0,0,0,0,0,0,0,0,0.2275,0.2228,0.2168,0.217,0.2263,0.2392,0.2392,0.2394,0.2404,0.2426,0,0.245,0,0.2512,0.2502,0.2502,0,0,0,0.2218,0.2219,0.2263,0.217,0.2265,0.2392,0.2321,0.24,0.2411,0.2439,0.2452,0.2458,0.2514,0.2503,0.2503,0.2693,0.2694,0,0,0.2211,0.2184,0.2255,0.227,0.2304,0.2317,0.2325,0.2407,0.2415,0.2452,0.2461,0.2516,0.2504,0.2505,0.2692,0.2694,0,0,0,0.2219,0.2179,0.222,0.2264,0.2316,0.2322,0.2331,0.241,0.2427,0.2463,0.2517,0.2504,0.2506,0.2691,0.2693,0.2735,0,0,0,0.2212,0.2188,0.2217,0.2201,0.2315,0.2381,0.2332,0.2418,0.2432,0.2516,0.2504,0.2507,0.269,0.2692,0.2731,0.2765,0,0,0,0.2161,0.2184,0.2201,0.22,0.2283,0.2381,0.24,0.2422,0.2468,0.2502,0.2508,0.2689,0.2692,0.2728,0.276,0.2864,0,0,0,0.2125,0.2174,0.2199,0.2256,0.2282,0.242,0.24,0.2516,0.2559,0.2505,0.269,0.2693,0.2727,0.2756,0.2859,0.28,0.2816,0,0,0.217,0.2178,0.2207,0.2236,0.2383,0.2398,0.2527,0.2583,0.2596,0.2648,0.2653,0.2733,0.2759,0.2863,0.2947,0.2958,0,0,0,0.221,0.2248,0.2291,0.2374,0.2464,0.2555,0.263,0.2659,0.2725,0.2643,0.2773,0.2789,0.2853,0.2809,0.2819,0.2705,0.2704,0.2704,0.2704,0.227,0.2307,0.2384,0.2461,0.2551,0.269,0.275,0.2804,0.2802,0.2854,0.2852,0.3001,0.2954,0.2961,0.2878,0.2878,0.2878,0.2878,0.2878,0.2337,0.2357,0.2432,0.2518,0.2619,0.2729,0.2853,0.2883,0.3003,0.2946,0.3005,0.289,0.2974,0.2882,0.2882,0.2881,0.2881,0.288,0.288,0.2283,0.2316,0.2361,0.2492,0.261,0.2731,0.2876,0.297,0.3046,0.312,0.311,0.3108,0.3032,0.3163,0.3164,0.3164,0.3165,0.3165,0.3166,0.223,0.2293,0.2326,0.245,0.2553,0.2673,0.2896,0.3026,0.3164,0.3184,0.3183,0.3098,0.3089,0.3052,0.3175,0.3174,0.3172,0.3171,0.3171,0.2239,0.2214,0.229,0.2363,0.2554,0.2606,0.2845,0.3069,0.3237,0.3289,0.3232,0.3227,0.3221,0.321,0.3178,0.3328,0.3328,0.3328,0.3328,0.2234,0.2213,0.2292,0.2365,0.2489,0.258,0.2687,0.2826,0.305,0.3081,0.3091,0.2965,0.2966,0.2937,0.2933,0.2892,0.2967,0.2966,0.2965,0.2301,0.2294,0.2295,0.2285,0.2443,0.25,0.2467,0.2446,0.266,0.2943,0.2948,0.3319,0.3156,0.3148,0.3119,0.3107,0.3047,0,0]},{"header":{"parameterUnit":"m.s-1","parameterCategory":2,"la1":30.2992,"la2":30.254,"lo1":-89.0895,"lo2":-89.0443,"dy":0.0025,"dx":0.0025,"nx":19,"ny":19,"refTime":"2026-03-26T09:00:00:Z","depth":"2","parameterNumber":3,"parameterNumberName":"V-component_of_CURRENTS"},"data":[0,0,0,0.005,0.0047,-0.005,-0.005,-0.0196,-0.0197,0,0,0,0,0,0,0,0,0,0,0,0.0105,0.0105,0.005,0.0047,-0.005,-0.005,-0.0196,-0.0197,0,0,0,0,0,0,0,0,0,0,0,0.0106,0.0105,0.0105,0.0047,-0.005,-0.005,-0.0195,-0.0115,0,0,0,0,0,0,0,0,0,0,-0.0018,0.0024,0.0105,0.0105,0.0046,-0.005,-0.0051,-0.0111,-0.012,-0.0159,0,-0.0162,0,-0.0197,-0.0208,-0.0209,0,0,0,0.0052,0.0032,0.0011,0.0105,0.0045,-0.005,-0.0005,-0.0116,-0.0127,-0.0172,-0.0165,-0.0171,-0.0199,-0.0209,-0.021,-0.0319,-0.0319,0,0,0.0057,0.0076,0.0019,0.0005,0.0034,-0.0002,-0.0008,-0.0122,-0.0131,-0.0165,-0.0175,-0.0202,-0.021,-0.0211,-0.0319,-0.0319,0,0,0,0.007,0.008,0.0063,0.0012,-0.0012,-0.0005,-0.0012,-0.0126,-0.0129,-0.0176,-0.0203,-0.0211,-0.0213,-0.0319,-0.0319,-0.0171,0,0,0,0.0073,0.0086,0.0066,0.0073,-0.0009,-0.0072,-0.0013,-0.012,-0.0135,-0.0203,-0.0211,-0.0215,-0.0319,-0.0319,-0.0175,-0.0114,0,0,0,0.0107,0.0088,0.0084,0.0075,0.0029,-0.0071,-0.0081,-0.0124,-0.0153,-0.0209,-0.0215,-0.0319,-0.0319,-0.0178,-0.0121,-0.0048,0,0,0,0.0119,0.0151,0.0085,0.0138,0.003,0.0015,-0.008,-0.0158,-0.0206,-0.0212,-0.0319,-0.0319,-0.018,-0.0125,-0.0053,0.0078,0.011,0,0,0.0176,0.0157,0.0202,0.0142,0.0148,0.0028,0.0045,-0.0099,-0.0215,-0.0282,-0.0285,-0.0174,-0.0121,-0.0049,0.0078,0.011,0,0,0,0.0235,0.0246,0.0243,0.0237,0.0196,0.0167,0.0011,-0.0055,-0.0166,-0.0245,-0.0215,-0.0188,-0.0146,-0.0079,-0.0054,-0.0319,-0.0319,-0.0319,-0.0319,0.0287,0.0304,0.0356,0.0349,0.0327,0.0223,0.0187,0.0063,-0.0078,-0.0131,-0.0097,0.0014,0.0086,0.0106,-0.0133,-0.0133,-0.0132,-0.0132,-0.0131,0.0411,0.0461,0.0457,0.0493,0.0454,0.0432,0.0343,0.0233,0.0128,-0.0001,0.0033,0.0035,0.0143,-0.0121,-0.0123,-0.0124,-0.0125,-0.0126,-0.0127,0.0512,0.0517,0.0544,0.0579,0.0597,0.0541,0.0587,0.0434,0.0269,0.0263,0.0291,0.0289,0.013,0.0264,0.0265,0.0265,0.0266,0.0266,0.0266,0.0559,0.0586,0.0649,0.0675,0.0658,0.0707,0.069,0.0668,0.0584,0.045,0.0451,0.0147,0.0134,0.0149,0.0276,0.0274,0.0273,0.0272,0.0271,0.0616,0.0637,0.0723,0.0742,0.0814,0.0991,0.0968,0.1035,0.0958,0.0952,0.0564,0.0553,0.0517,0.0496,0.0517,0.0732,0.0732,0.0732,0.0732,0.0613,0.0666,0.0783,0.0892,0.1017,0.1143,0.1386,0.1309,0.1072,0.0862,0.0855,0.0795,0.0776,0.0746,0.0718,0.074,0.1013,0.1013,0.1014,0.0606,0.0661,0.0794,0.0989,0.112,0.1383,0.16,0.1469,0.1108,0.1015,0.0809,0.0769,0.0661,0.0637,0.0566,0.0533,0.0557,0,0]}],[{"header":{"parameterUnit":"m.s-1","parameterCategory":2,"la1":30.2992,"la2":30.254,"lo1":-89.0895,"lo2":-89.0443,"dy":0.0025,"dx":0.0025,"nx":19,"ny":19,"refTime":"2026-03-26T09:00:00:Z","depth":"4","parameterNumber":2,"parameterNumberName":"U-component_of_CURRENTS"},"data":[0,0,0,0.1091,0.1093,0.1245,0.1246,0.1377,0.1377,0,0,0,0,0,0,0,0,0,0,0,0.1056,0.1057,0.1091,0.1094,0.1245,0.1246,0.1377,0.1377,0,0,0,0,0,0,0,0,0,0,0,0.1056,0.1057,0.1058,0.1094,0.1245,0.1246,0.1376,0.1284,0,0,0,0,0,0,0,0,0,0,0.1148,0.1114,0.1056,0.1058,0.1095,0.1244,0.1246,0.1281,0.129,0.1281,0,0.1304,0,0.1322,0.1382,0.1382,0,0,0,0.1122,0.1107,0.1139,0.1058,0.1096,0.1244,0.1185,0.1287,0.1297,0.1293,0.1306,0.1311,0.1324,0.1383,0.1383,0.1488,0.1488,0,0,0.1113,0.1092,0.1133,0.1146,0.1133,0.1179,0.1189,0.1294,0.1306,0.1307,0.1314,0.1326,0.1383,0.1384,0.1487,0.1488,0,0,0,0.107,0.1086,0.1119,0.114,0.1161,0.1183,0.1194,0.1302,0.1311,0.1316,0.1328,0.1383,0.1384,0.1486,0.1487,0.1567,0,0,0,0.1067,0.1058,0.1115,0.1105,0.1159,0.124,0.12,0.1305,0.1317,0.1327,0.1383,0.1385,0.1486,0.1487,0.1563,0.1604,0,0,0,0.105,0.1056,0.1072,0.1103,0.1153,0.1239,0.1257,0.1309,0.1322,0.1382,0.1385,0.1485,0.1487,0.156,0.1598,0.1678,0,0,0,0.1025,0.1033,0.1072,0.1092,0.1152,0.1217,0.1257,0.1326,0.1378,0.1384,0.1486,0.1487,0.1559,0.1594,0.1674,0.1463,0,0,0,0.1012,0.1031,0.1042,0.108,0.1121,0.1199,0.1279,0.1368,0.1398,0.1449,0.1453,0.1564,0.1597,0.1677,0.155,0,0,0,0,0.1023,0.103,0.105,0.1091,0.1151,0.1257,0.1329,0.14,0.1521,0.143,0.1572,0.159,0.1638,0.1502,0.1494,0.1494,0.1494,0.1494,0.1494,0.0977,0.1015,0.1043,0.1103,0.1164,0.1301,0.1414,0.1526,0.153,0.1615,0.1661,0.1783,0.1641,0.1662,0.1663,0.1663,0.1663,0.1664,0.1664,0.095,0.096,0.1048,0.1094,0.1218,0.1321,0.1521,0.1599,0.1779,0.1752,0.1795,0.1601,0.1672,0.167,0.1669,0.1668,0.1667,0.1667,0.1667,0.0904,0.0911,0.0974,0.1066,0.1223,0.1382,0.1574,0.1726,0.1856,0.193,0.18,0.1852,0.1841,0.1963,0.1964,0.1965,0.1965,0.1965,0.1966,0.082,0.0877,0.0918,0.1047,0.1143,0.1337,0.1633,0.1762,0.191,0.1881,0.197,0.1884,0.1874,0.1859,0.1974,0.1973,0.1972,0.1971,0.197,0.0711,0.0769,0.0811,0.0888,0.11,0.1236,0.1522,0.1745,0.1873,0.1906,0.1853,0.1856,0.1815,0.1808,0.1787,0.1886,0.1884,0.1882,0,0.0632,0.0663,0.0732,0.0825,0.0965,0.1172,0.1343,0.1543,0.17,0.1635,0.1839,0.1768,0.1771,0.171,0.1701,0.1668,0,0,0,0.0551,0.0594,0.0628,0.0756,0.0905,0.1144,0.1392,0.1436,0.1658,0.175,0.1825,0.184,0.1899,0.2,0.1946,0.1934,0.1906,0,0]},{"header":{"parameterUnit":"m.s-1","parameterCategory":2,"la1":30.2992,"la2":30.254,"lo1":-89.0895,"lo2":-89.0443,"dy":0.0025,"dx":0.0025,"nx":19,"ny":19,"refTime":"2026-03-26T09:00:00:Z","depth":"4","parameterNumber":3,"parameterNumberName":"V-component_of_CURRENTS"},"data":[0,0,0,0.0408,0.0409,0.0414,0.0414,0.0382,0.0382,0,0,0,0,0,0,0,0,0,0,0,0.0398,0.0398,0.0408,0.0409,0.0414,0.0414,0.0382,0.0382,0,0,0,0,0,0,0,0,0,0,0,0.0398,0.0398,0.0399,0.0409,0.0414,0.0414,0.0382,0.0384,0,0,0,0,0,0,0,0,0,0,0.0382,0.0387,0.0398,0.0399,0.0409,0.0414,0.0414,0.0384,0.0384,0.0373,0,0.038,0,0.039,0.038,0.038,0,0,0,0.0393,0.0388,0.039,0.0399,0.0409,0.0414,0.0407,0.0384,0.0383,0.0372,0.038,0.0379,0.039,0.038,0.038,0.0416,0.0417,0,0,0.0393,0.0395,0.0391,0.039,0.0419,0.0407,0.0408,0.0384,0.0385,0.038,0.0379,0.0389,0.038,0.0379,0.0416,0.0416,0,0,0,0.0403,0.0395,0.0399,0.0391,0.0401,0.0408,0.0408,0.0386,0.0388,0.0379,0.0389,0.0379,0.0379,0.0415,0.0416,0.0501,0,0,0,0.0402,0.0402,0.0399,0.0399,0.0402,0.0401,0.0411,0.0389,0.0387,0.0389,0.0379,0.0379,0.0414,0.0415,0.0497,0.0543,0,0,0,0.0397,0.0402,0.0405,0.04,0.041,0.0401,0.0401,0.0389,0.0394,0.038,0.0379,0.0414,0.0415,0.0494,0.0537,0.0506,0,0,0,0.0394,0.0435,0.0405,0.0455,0.041,0.0459,0.0402,0.0427,0.0424,0.0379,0.0414,0.0416,0.0493,0.0533,0.0504,0.046,0,0,0,0.0453,0.0442,0.0474,0.0448,0.0518,0.0457,0.0517,0.0482,0.0437,0.0415,0.0416,0.0498,0.0536,0.0506,0.0541,0,0,0,0,0.0498,0.052,0.0536,0.0565,0.0577,0.0584,0.0553,0.0528,0.0508,0.0444,0.0503,0.0524,0.0501,0.0469,0.0423,0.0422,0.0422,0.0422,0.0422,0.0563,0.058,0.0642,0.0663,0.0685,0.0676,0.0667,0.0624,0.058,0.0583,0.0596,0.0639,0.0613,0.0593,0.0594,0.0594,0.0595,0.0595,0.0595,0.0654,0.0692,0.0711,0.0784,0.0787,0.0828,0.0785,0.0748,0.0706,0.0675,0.0647,0.0568,0.0604,0.0602,0.0601,0.06,0.0599,0.0599,0.0598,0.0692,0.0717,0.0764,0.0854,0.0918,0.0927,0.0932,0.0889,0.0794,0.0781,0.0684,0.0676,0.0661,0.0749,0.075,0.075,0.075,0.075,0.075,0.0712,0.0759,0.0835,0.0928,0.0995,0.1046,0.1023,0.0962,0.0872,0.0779,0.0796,0.069,0.0685,0.0668,0.0751,0.0751,0.0751,0.0751,0.0751,0.0756,0.0779,0.0886,0.0962,0.109,0.1106,0.1108,0.0956,0.0871,0.0765,0.074,0.074,0.069,0.0684,0.0665,0.075,0.075,0.075,0,0.0768,0.0792,0.0914,0.1021,0.1095,0.1132,0.103,0.0942,0.0808,0.0805,0.0838,0.0817,0.0813,0.0762,0.0756,0.0738,0,0,0,0.0783,0.0821,0.0893,0.1006,0.1095,0.1022,0.0988,0.0919,0.0866,0.075,0.0742,0.0744,0.0765,0.0756,0.0677,0.0671,0.0638,0,0]}]]